When you browse on this site, cookies collect data to enhance your experience and personalize the content and advertising you see.
Visit our Privacy Policy to learn more. By continuing to use the site, you agree to this use of cookies and data.
  • In United States
  • List of Countries
  • For 7 days
  • Water Temperature
  • Satellite Maps
  • Weather Map
  • Weather Widgets
  • user-avatar
    Login

    Hourly Weather Malanje

    Today, 13 December, Thursday

    Time Temperature Precipitation Wind Pressure Humidity
    00:00 +20°C° 0 mm 1 mps 666 mmHg 93%
    01:00 +19°C° 0 mm 1 mps 666 mmHg 93%
    02:00 +19°C° 0 mm 1 mps 666 mmHg 95%
    03:00 +19°C° 0 mm 1 mps 666 mmHg 96%
    04:00 +19°C° 0 mm 1 mps 666 mmHg 98%
    05:00 +20°C° 0 mm 1 mps 666 mmHg 97%
    06:00 +20°C° 0 mm 1 mps 667 mmHg 96%
    07:00 +21°C° 0 mm 1 mps 667 mmHg 95%
    08:00 +22°C° 0 mm 1 mps 668 mmHg 89%
    09:00 +24°C° 0 mm 1 mps 668 mmHg 84%
    10:00 +25°C° 0 mm 1 mps 668 mmHg 79%
    11:00 +26°C° 0.2 mm 1 mps 667 mmHg 75%
    12:00 +27°C° 0.2 mm 1 mps 667 mmHg 72%
    13:00 +27°C° 0 mm 1 mps 667 mmHg 70%
    14:00 +27°C° 0.6 mm 1 mps 666 mmHg 73%
    15:00 +27°C° 0.6 mm 1 mps 666 mmHg 76%
    16:00 +27°C° 0.6 mm 1 mps 665 mmHg 79%
    17:00 +25°C° 1.2 mm 1 mps 665 mmHg 83%
    18:00 +23°C° 1.2 mm 1 mps 665 mmHg 88%
    19:00 +21°C° 1.2 mm 1 mps 665 mmHg 93%
    20:00 +21°C° 0.2 mm 1 mps 666 mmHg 94%
    21:00 +21°C° 0.2 mm 1 mps 666 mmHg 94%
    22:00 +21°C° 0.2 mm 1 mps 666 mmHg 94%
    23:00 +20°C° 0.2 mm 1 mps 666 mmHg 95%

    Tomorrow, 14 December, Friday

    Time Temperature Precipitation Wind Pressure Humidity
    00:00 +18°C° 0.2 mm 0 mps 666 mmHg 95%
    01:00 +18°C° 0.2 mm 0 mps 666 mmHg 95%
    02:00 +18°C° 0.2 mm 0 mps 666 mmHg 96%
    03:00 +18°C° 0.2 mm 0 mps 666 mmHg 96%
    04:00 +17°C° 0.2 mm 0 mps 666 mmHg 97%
    05:00 +18°C° 0.1 mm 0 mps 667 mmHg 96%
    06:00 +19°C° 0.1 mm 0 mps 667 mmHg 96%
    07:00 +21°C° 0.1 mm 1 mps 667 mmHg 96%
    08:00 +23°C° 0 mm 1 mps 668 mmHg 89%
    09:00 +24°C° 0 mm 1 mps 668 mmHg 83%
    10:00 +26°C° 0 mm 1 mps 668 mmHg 77%
    11:00 +26°C° 0.3 mm 2 mps 668 mmHg 75%
    12:00 +27°C° 0.3 mm 2 mps 667 mmHg 73%
    13:00 +28°C° 0.3 mm 2 mps 667 mmHg 71%
    14:00 +27°C° 1.2 mm 2 mps 666 mmHg 76%
    15:00 +27°C° 1.2 mm 2 mps 666 mmHg 80%
    16:00 +26°C° 1.2 mm 2 mps 665 mmHg 84%
    17:00 +25°C° 1.2 mm 2 mps 665 mmHg 88%
    18:00 +23°C° 1.2 mm 2 mps 665 mmHg 91%
    19:00 +20°C° 1.2 mm 2 mps 666 mmHg 94%
    20:00 +20°C° 0.3 mm 2 mps 666 mmHg 95%
    21:00 +21°C° 0.3 mm 1 mps 666 mmHg 96%
    22:00 +20°C° 0.3 mm 1 mps 667 mmHg 96%
    23:00 +19°C° 0.3 mm 2 mps 667 mmHg 97%

    Day after tomorrow, 15 December, Saturday

    Time Temperature Precipitation Wind Pressure Humidity
    00:00 +19°C° 0.3 mm 2 mps 667 mmHg 97%
    01:00 +19°C° 0.3 mm 2 mps 666 mmHg 98%
    02:00 +19°C° 0.2 mm 2 mps 666 mmHg 98%
    03:00 +19°C° 0.2 mm 2 mps 666 mmHg 98%
    04:00 +19°C° 0.2 mm 2 mps 666 mmHg 98%
    05:00 +19°C° 0.1 mm 2 mps 666 mmHg 98%
    06:00 +19°C° 0.1 mm 2 mps 667 mmHg 98%
    07:00 +19°C° 0.1 mm 2 mps 667 mmHg 97%
    08:00 +20°C° 0.1 mm 2 mps 668 mmHg 92%
    09:00 +21°C° 0.1 mm 2 mps 668 mmHg 88%
    10:00 +23°C° 0.1 mm 2 mps 668 mmHg 83%
    11:00 +24°C° 0.1 mm 2 mps 668 mmHg 78%
    12:00 +26°C° 0.1 mm 2 mps 667 mmHg 73%
    13:00 +27°C° 0.1 mm 3 mps 667 mmHg 68%
    14:00 +27°C° 0.3 mm 3 mps 666 mmHg 71%
    15:00 +26°C° 0.3 mm 2 mps 666 mmHg 74%
    16:00 +26°C° 0.3 mm 2 mps 665 mmHg 77%
    17:00 +25°C° 0.7 mm 2 mps 666 mmHg 82%
    18:00 +23°C° 0.7 mm 2 mps 666 mmHg 88%
    19:00 +21°C° 0.7 mm 2 mps 666 mmHg 93%
    20:00 +21°C° 0.9 mm 1 mps 667 mmHg 94%
    21:00 +21°C° 0.9 mm 1 mps 667 mmHg 95%
    22:00 +20°C° 0.9 mm 1 mps 668 mmHg 96%
    23:00 +20°C° 0.4 mm 1 mps 667 mmHg 97%

    16 December, Sunday

    Time Temperature Precipitation Wind Pressure Humidity
    00:00 +20°C° 0.4 mm 1 mps 667 mmHg 97%
    01:00 +20°C° 0.4 mm 1 mps 666 mmHg 98%
    02:00 +20°C° 0.3 mm 1 mps 666 mmHg 98%
    03:00 +20°C° 0.3 mm 1 mps 666 mmHg 98%
    04:00 +20°C° 0.3 mm 1 mps 666 mmHg 98%
    05:00 +20°C° 0.4 mm 1 mps 666 mmHg 98%
    06:00 +20°C° 0.4 mm 1 mps 667 mmHg 97%
    07:00 +20°C° 0.4 mm 1 mps 667 mmHg 97%
    08:00 +21°C° 0.2 mm 1 mps 667 mmHg 93%
    09:00 +23°C° 0.2 mm 1 mps 667 mmHg 88%
    10:00 +24°C° 0.2 mm 1 mps 668 mmHg 83%
    11:00 +25°C° 0.3 mm 1 mps 667 mmHg 80%
    12:00 +26°C° 0.3 mm 2 mps 667 mmHg 76%
    13:00 +26°C° 0.3 mm 2 mps 666 mmHg 73%
    14:00 +26°C° 0.8 mm 2 mps 666 mmHg 78%
    15:00 +25°C° 0.8 mm 2 mps 666 mmHg 83%
    16:00 +24°C° 0.8 mm 2 mps 665 mmHg 88%
    17:00 +23°C° 0.5 mm 1 mps 665 mmHg 90%
    18:00 +22°C° 0.5 mm 1 mps 666 mmHg 93%
    19:00 +21°C° 0.5 mm 1 mps 666 mmHg 96%
    20:00 +21°C° 0.1 mm 1 mps 666 mmHg 96%
    21:00 +20°C° 0.1 mm 1 mps 666 mmHg 96%
    22:00 +20°C° 0.1 mm 1 mps 667 mmHg 96%
    23:00 +20°C° 0.1 mm 1 mps 666 mmHg 97%

    17 December, Monday

    Time Temperature Precipitation Wind Pressure Humidity
    00:00 +20°C° 0.1 mm 1 mps 666 mmHg 97%
    01:00 +20°C° 0.1 mm 1 mps 665 mmHg 97%
    02:00 +19°C° 0.1 mm 1 mps 665 mmHg 97%
    03:00 +19°C° 0.1 mm 1 mps 665 mmHg 98%
    04:00 +19°C° 0.1 mm 1 mps 665 mmHg 98%
    05:00 +19°C° 0 mm 1 mps 666 mmHg 98%
    06:00 +20°C° 0 mm 1 mps 666 mmHg 97%
    07:00 +19°C° 0 mm 2 mps 667 mmHg 97%
    08:00 +21°C° 0.1 mm 1 mps 667 mmHg 93%
    09:00 +22°C° 0.1 mm 1 mps 667 mmHg 89%
    10:00 +24°C° 0.1 mm 1 mps 668 mmHg 85%
    11:00 +25°C° 0.6 mm 1 mps 667 mmHg 82%
    12:00 +25°C° 0.6 mm 1 mps 666 mmHg 79%
    13:00 +26°C° 0.6 mm 1 mps 666 mmHg 77%
    14:00 +26°C° 0.4 mm 1 mps 666 mmHg 78%
    15:00 +26°C° 0.4 mm 1 mps 665 mmHg 80%
    16:00 +26°C° 0.4 mm 1 mps 665 mmHg 82%
    17:00 +24°C° 0.5 mm 1 mps 665 mmHg 86%
    18:00 +23°C° 0.5 mm 1 mps 665 mmHg 90%
    19:00 +21°C° 0.5 mm 1 mps 666 mmHg 93%
    20:00 +21°C° 0.4 mm 1 mps 666 mmHg 94%
    21:00 +21°C° 0.4 mm 1 mps 666 mmHg 94%
    22:00 +20°C° 0.4 mm 1 mps 667 mmHg 95%
    23:00 +20°C° 0.5 mm 1 mps 666 mmHg 95%

    18 December, Tuesday

    Time Temperature Precipitation Wind Pressure Humidity
    00:00 +20°C° 0.5 mm 1 mps 666 mmHg 96%
    01:00 +20°C° 0.5 mm 1 mps 666 mmHg 96%
    02:00 +20°C° 0.5 mm 1 mps 665 mmHg 96%
    03:00 +20°C° 0.5 mm 1 mps 665 mmHg 97%
    04:00 +19°C° 0.5 mm 1 mps 665 mmHg 97%
    05:00 +20°C° 0.5 mm 1 mps 666 mmHg 97%
    06:00 +20°C° 0.5 mm 1 mps 666 mmHg 97%
    07:00 +20°C° 0.5 mm 1 mps 667 mmHg 97%
    08:00 +20°C° 0.5 mm 1 mps 667 mmHg 96%
    09:00 +21°C° 0.5 mm 1 mps 667 mmHg 95%
    10:00 +21°C° 0.5 mm 1 mps 667 mmHg 95%
    11:00 +21°C° 0.2 mm 2 mps 666 mmHg 91%
    12:00 +21°C° 0.2 mm 2 mps 666 mmHg 87%
    13:00 +23°C° 0.2 mm 2 mps 665 mmHg 83%
    14:00 +23°C° 0 mm 2 mps 665 mmHg 82%
    15:00 +23°C° 0 mm 2 mps 665 mmHg 81%
    16:00 +23°C° 0 mm 2 mps 664 mmHg 81%
    17:00 +21°C° 0 mm 2 mps 664 mmHg 84%
    18:00 +21°C° 0 mm 1 mps 665 mmHg 88%
    19:00 +20°C° 0 mm 1 mps 665 mmHg 92%
    20:00 +20°C° 0 mm 1 mps 665 mmHg 92%
    21:00 +20°C° 0 mm 1 mps 665 mmHg 92%
    22:00 +19°C° 0 mm 1 mps 666 mmHg 92%
    23:00 +19°C° 0 mm 1 mps 665 mmHg 92%
    Show more